Location: Fiume de Mogoro
(39.8167°N, 8.5667°E)
Time: 01:24:37
(UTC+00:00)

Daily predictions for brighter satellites

Satellite Brightness Start Highest point End
(mag) Time Altitude Azimuth Time Altitude Azimuth Time Altitude Azimuth
CENTAUR R/B 4.4 02:45:10 29° NNE 02:47:04 32° NE 02:54:39 10° E
SL-16 R/B 4.2 03:20:48 19° SSE 03:20:48 19° SSE 03:22:14 10° SSE
USA 238 DEB 4.4 03:18:26 47° NNE 03:19:44 52° NE 03:27:03 10° SE
USA 238 4.4 03:18:30 47° NNE 03:19:49 52° NE 03:27:08 10° SE
Cosmos 1745 Rocket 4.4 03:17:28 10° S 03:23:36 60° E 03:29:49 10° NNE
ALOS 3.6 03:37:37 10° NNE 03:47:07 - S 03:40:31 34° NE
Cosmos 773 Rocket 4.3 03:46:05 64° ESE 03:46:05 64° ESE 03:50:47 10° SSE
Lacrosse 5 3.5 03:43:42 23° SSE 03:45:45 32° ESE 03:50:13 10° ENE
Cosmos 2263 Rocket 2.4 03:46:18 51° SSE 03:47:35 67° ESE 03:53:14 10° NNE
ERS-2 4.2 03:46:31 10° SE 03:48:39 26° ESE 03:48:39 26° ESE
SJ 16-02 2.9 03:54:58 10° SSE 03:58:58 34° E 04:02:59 10° NE
GPS 2-04 Rocket1 4.4 04:03:25 26° SSE 04:03:25 26° SSE 04:06:14 10° ESE
OAO 2 Rocket 4.4 04:02:44 33° S 04:03:28 35° SSE 04:08:06 10° E
ATLAS 3B R/B 4.5 03:59:42 12° N 04:04:38 25° NE 04:10:18 10° E
Milstar 3 Cent rocket 4.1 04:03:31 25° SW 04:07:23 40° SSE 04:19:54 10° ESE
COSMO-SKYMED 1 4.0 04:05:44 10° SE 04:09:41 36° ENE 04:13:40 10° N
Cosmos 1603 4.0 04:08:23 29° N 04:11:18 65° ENE 04:16:53 10° SSE
FENGYUN 3A 3.5 04:08:51 10° N 04:14:17 77° WNW 04:19:39 10° SSW
Cosmos 1606 4.0 04:20:36 29° S 04:20:36 29° S 04:22:35 10° S
Cosmos 1943 3.4 04:17:13 22° NNW 04:20:55 68° ENE 04:26:35 10° SSE
ADEOS 3.4 04:16:46 10° N 04:21:59 74° WNW 04:27:11 10° SSW
OAO 3 Rocket 4.1 04:22:52 32° SSW 04:23:11 32° SSW 04:27:22 10° SE
NOSS 3-4 (A) 3.2 04:19:51 24° SW 04:23:31 84° WNW 04:29:45 10° NNE
SWAS 4.2 04:23:25 78° WNW 04:23:38 82° WSW 04:27:53 10° SSE
NOSS 3-4 (C) 3.2 04:19:51 23° SW 04:23:39 85° NW 04:29:52 10° NNE
Cosmos 1933 3.7 04:21:48 24° N 04:24:09 64° E 04:28:12 10° SSE
MINOTAUR IV R/B 4.5 04:24:41 66° WNW 04:25:05 70° WSW 04:29:38 10° SSE
NOSS 3-2 (C) 4.1 04:20:32 25° NNW 04:25:42 90° ENE 04:34:23 10° SSE
Nadezhda 1 Rocket 4.2 04:28:56 32° NW 04:31:16 44° W 04:37:09 10° SSW
SL-4 R/B 3.6 04:33:39 21° N 04:33:39 21° N 04:35:46 10° NNE
FALCON 9 DEB 4.2 04:33:13 29° S 04:34:16 39° SE 04:37:18 10° ENE
Meteor 1-4 Rocket 3.5 04:31:52 16° N 04:34:22 44° ENE 04:37:40 10° SSE
Cosmos 2084 3.5 04:33:09 44° NNW 04:34:35 89° ENE 04:39:04 10° SSE
RESURS DK-1 4.5 04:32:05 10° SSE 04:35:39 29° ESE 04:39:15 10° NE
Meteor 1-31 Rocket 3.8 04:32:58 10° N 04:39:48 15° SSW 04:40:30 10° SSW
FALCON 9 DEB 3.9 04:35:56 33° S 04:36:54 46° SE 04:39:59 10° ENE
Cosmos 1782 4.1 04:33:28 10° N 04:37:16 40° ENE 04:41:05 10° SSE
CZ-4B R/B 3.1 04:34:37 10° S 04:35:50 21° S 04:35:50 21° S
Cosmos 2227 4.4 04:36:02 33° WSW 04:38:06 47° WNW 04:43:32 10° NNE
Cosmos 1538 Rocket 3.9 04:35:15 27° NNW 04:38:09 68° WSW 04:43:22 10° S
CENTAUR R/B 3.2 04:32:23 20° NW 04:38:38 79° WSW 04:47:31 10° SSE
USA 234 3.7 04:34:47 10° NE 04:41:17 64° SE 04:47:45 10° SW
Atlas Centaur 2 3.8 04:37:03 11° SW 04:41:43 24° S 04:45:49 10° ESE
ATLAS 2AS CENTAUR R/B 3.0 04:35:07 10° SW 04:43:04 82° WNW 04:51:01 10° NNE
ARGOS Delta rocket 4.4 04:39:17 10° N 04:44:01 37° WNW 04:48:29 10° SW
deb Chang Zheng 4 3.7 04:43:32 10° N 04:47:44 50° WNW 04:51:56 10° SSW
Cosmos 1633 2.8 04:51:09 10° SSW 04:54:30 41° W 04:57:52 10° N
FALCON 9 DEB 3.1 04:54:31 23° SW 04:56:22 71° SE 04:59:34 10° NE
SKYMED 2 3.5 04:53:23 10° S 04:57:40 65° WSW 05:02:00 10° NNW
Gbstr 26 Del rocket 4.4 04:56:52 17° NNW 04:58:46 24° NNE 05:02:02 10° E
Cosmos 1898 Rocket 3.9 04:54:24 10° S 04:59:39 69° ESE 05:04:58 10° NNE
Cosmos 1515 Rocket 4.0 04:56:37 10° N 05:01:04 65° E 05:05:29 10° SSE
Cosmos 1184 Rocket 3.2 04:58:30 10° SSW 05:01:36 39° WNW 05:04:42 10° N
SAR-Lupe-4 3.7 04:58:25 10° S 05:01:53 48° W 05:03:59 21° NNW
Lacrosse 4 Rocket 1.5 04:58:46 15° NNW 05:02:17 81° ENE 05:06:42 10° SSE
Meteor 2-17 Rocket 4.3 05:00:43 10° SSW 05:06:42 68° W 05:12:45 10° N
Cosmos 1844 Rocket 3.2 05:01:49 10° S 05:07:22 63° ESE 05:12:58 10° NNE
YAOGAN 6 3.6 05:06:37 10° NNE 05:10:01 47° E 05:13:23 10° S
USA 238 4.5 05:06:00 18° WNW 05:10:37 36° WSW 05:17:19 10° S
BREEZE-M DEB (TANK) 2.9 05:08:13 13° SW 05:11:02 87° SE 05:20:00 10° ENE
Envisat 3.6 05:07:39 10° NNE 05:12:42 62° E 05:17:42 10° S
Cosmos 1461 3.4 05:09:38 19° NW 05:12:44 48° WSW 05:17:03 10° S
CZ-4B R/B 3.4 05:10:30 10° N 05:14:47 43° WNW 05:18:57 10° SW
Cosmos 1689 Rocket 2.4 05:12:06 10° S 05:14:48 39° W 05:16:25 20° NW
Meteor 1-26 Rocket 4.3 05:10:18 10° NNW 05:15:58 55° W 05:21:25 10° S
Cosmos 1151 Rocket 3.5 05:13:03 10° NNW 05:17:00 38° W 05:20:57 10° SSW
Okean O Rocket 3.6 05:13:42 10° NNE 05:17:42 33° E 05:21:42 10° SSE
ALOS 3.7 05:16:13 10° NNW 05:18:59 17° WNW 05:18:59 17° WNW
Cosmos 1937 Rocket 3.6 05:16:24 10° SSW 05:21:31 78° ESE 05:26:42 10° NNE
Cosmos 1500 Rocket 3.5 05:17:35 10° S 05:21:54 87° E 05:26:14 10° N
H-2A R/B 2.7 05:18:27 10° N 05:22:19 61° WNW 05:26:09 10° SSW
CZ-4C R/B 1.9 05:17:40 10° SW 05:22:26 67° NW 05:28:08 10° NNE
BREEZE-M DEB (TANK) 3.3 05:16:30 14° NW 05:22:40 63° NNE 05:25:24 10° ESE
ERS-2 3.9 05:21:19 10° SW 05:23:14 15° W 05:23:14 15° W
BREEZE-M DEB (TANK) 3.4 05:25:50 17° WNW 05:27:40 37° N 05:31:47 10° ENE
Cosmos 1328 Rocket 4.2 05:23:40 10° NNW 05:27:40 34° W 05:31:38 10° SSW
Cosmos 2181 Rocket 4.3 05:22:49 10° NNW 05:28:34 41° W 05:34:14 10° SSW
Lacrosse 5 2.2 05:23:45 10° WSW 05:28:35 43° NW 05:33:26 10° NNE
Cosmos 2263 Rocket 3.5 05:28:09 10° W 05:32:02 19° NW 05:36:03 10° N
Aureole 2 Rocket 3.1 05:33:36 10° S 05:36:02 42° ESE 05:38:28 10° NNE
SJ 16-02 2.6 05:34:17 10° WSW 05:37:37 21° WNW 05:40:59 10° NNW
Cosmos 2154 Rocket 4.0 05:32:00 10° S 05:38:12 87° W 05:44:30 10° N
Meteor 1-10 Rocket 4.4 05:33:14 10° N 05:38:48 80° E 05:44:24 10° SSE
FALCON 9 DEB 3.6 05:37:30 10° WSW 05:40:30 35° NNW 05:43:29 10° NE
Cosmos 1862 3.3 05:36:54 10° SSW 05:40:54 64° W 05:44:56 10° N
BREEZE-M DEB 3.7 05:31:48 10° WNW 05:41:42 65° NNE 05:44:45 10° ESE
GPS 2-04 Rocket1 3.5 05:38:23 10° WSW 05:42:04 44° S 05:45:36 10° ESE
Cosmos 858 Rocket 4.5 05:38:58 10° SSW 05:44:08 66° WNW 05:49:22 10° NNE
Cosmos 1743 Rocket 3.8 05:40:24 10° SSW 05:44:42 50° W 05:49:03 10° N
COSMO-SKYMED 1 4.0 05:42:51 10° SW 05:45:56 19° W 05:49:02 10° NW
OAO 2 Rocket 4.1 05:42:56 10° WSW 05:47:51 50° S 05:52:51 10° ESE
CZ-2C R/B 3.3 05:43:39 10° SSE 05:49:05 62° ENE 05:54:27 10° N
CZ-4B R/B 3.5 05:44:15 10° NNE 05:49:36 76° ESE 05:55:01 10° S
Sich 1 3.6 05:45:20 10° S 05:49:42 64° E 05:54:06 10° NNE
MOS 1-B 4.4 05:48:35 10° N 05:54:21 67° WNW 06:00:05 10° SSW
COSMOS 2455 3.2 05:49:50 10° SSW 05:55:49 74° ESE 06:01:51 10° NNE
ATLAS 3B R/B 2.9 05:49:06 10° NW 05:56:06 83° WSW 06:03:22 10° SSE
